Home > Weather > Neustrelitz > Past weeks

Flag for Germany Past Weather in Neustrelitz, Mecklenburg-Western Pomerania, Germany — Yesterday and Last 2 Weeks

Now
57 °F

Fog.


Feels Like: 55 °F
Forecast: 56 / 67 °F
Wind: 9 mph from Northwest

Location: Laage

Current Time: May 24, 2016 at 9:51:23 PM

Latest Report: May 24, 2016 at 9:20 PM


Visibility: 1 mi

Pressure: 29.89 "Hg

Humidity: 94%

Dew Point: 55 °F

Location of NeustrelitzLocation

Past Weather in Neustrelitz — Graph

°F

Neustrelitz Temperature Yesterday

Maximum temperature yesterday: 70 °F (at 4:20 PM)
Minimum temperature yesterday: 57 °F (at 5:20 AM)
Average temperature yesterday: 63 °F

High & Low Weather Summary for the Past Weeks

 TemperatureHumidityPressure
High82 °F (May 22, 3:20 PM)100% (May 15, 5:20 AM)30.12 "Hg (May 15, 5:20 AM)
Low39 °F (May 18, 5:20 AM)30% (May 12, 5:20 PM)29.56 "Hg (May 13, 8:20 PM)
Average57 °F70%29.84 "Hg
* Reported May 9 8:20 PM — May 24 8:20 PM, Neustrelitz, Weather by CustomWeather, © 2016

Note: Actual official high and low records may vary slightly from our data, if they occured in-between our weather recording intervals... More about our weather records

Advertising

Neustrelitz Weather History for the Previous 24 Hours

Scroll right to see more
 ConditionsComfort  
Time TempWeatherWind HumidityBarometerVisibility
8:20 PM
Tue, May 24
57 °FFog.10 mph94%29.86 "Hg2 mi
7:20 PM57 °FFog.9 mph94%29.86 "Hg2 mi
6:20 PM57 °FFog.12 mph94%29.86 "Hg2 mi
5:20 PM57 °FFog.10 mph94%29.86 "Hg2 mi
4:20 PM57 °FFog.13 mph94%29.86 "Hg2 mi
3:20 PM57 °FFog.10 mph94%29.86 "Hg2 mi
2:20 PM59 °FFog.12 mph88%29.83 "Hg2 mi
1:20 PM59 °FLow clouds.12 mph88%29.83 "Hg5 mi
12:20 PM61 °FLow clouds.12 mph83%29.83 "Hg6 mi
11:20 AM61 °FPartly sunny.10 mph83%29.83 "HgN/A
10:20 AM59 °FPartly sunny.13 mph88%29.80 "HgN/A
9:20 AM61 °FPartly sunny.9 mph83%29.80 "HgN/A
8:20 AM59 °FPartly sunny.10 mph88%29.80 "HgN/A
7:47 AM59 °FPartly sunny.12 mph88%29.77 "HgN/A
7:20 AM57 °FSprinkles. Broken clouds.13 mph94%29.77 "HgN/A
6:20 AM57 °FPartly sunny.16 mph94%29.77 "HgN/A
5:20 AM57 °FPartly cloudy.17 mph94%29.77 "Hg6 mi
5:03 AM57 °FPassing clouds.15 mph94%29.80 "HgN/A
4:20 AM57 °FThundershowers. Partly cloudy.12 mph94%29.80 "HgN/A
3:20 AM59 °FMostly cloudy.7 mph82%29.80 "HgN/A
2:20 AM59 °FMostly cloudy.10 mph82%29.77 "HgN/A
1:20 AM61 °FPassing clouds.12 mph83%29.77 "HgN/A
12:20 AM63 °FThundershowers. Passing clouds.12 mph88%29.80 "Hg6 mi
11:20 PM
Mon, May 23
63 °FPassing clouds.9 mph88%29.80 "HgN/A
10:20 PM63 °FPartly cloudy.16 mph88%29.80 "HgN/A
9:20 PM63 °FPartly sunny.14 mph88%29.83 "HgN/A
Weather by CustomWeather, © 2016

See weather overviewHow to use our weather pages